This is the latest recevied weather packets stored in our database for station/object KC5DAQ-28. If no packets are shown the sender has not sent any weather packets the latest 10 day(s).
| Time | Temp. | Humidity | Pressure | Rain* | Wind** | Luminosity | Snow |
|---|---|---|---|---|---|---|---|
| 1777589763 | 24.44° C | 78% | 1002.5 hPa | 0 mm | - | 172 W/m² | - |
| 1777589703 | 24.44° C | 78% | 1002.5 hPa | 0 mm | - | 199 W/m² | - |
| 1777589643 | 24.44° C | 78% | 1002.5 hPa | 0 mm | - | 199 W/m² | - |
| 1777589584 | 24.44° C | 78% | 1002.4 hPa | 0 mm | - | 199 W/m² | - |
| 1777589522 | 24.44° C | 79% | 1002.5 hPa | 0 mm | - | 199 W/m² | - |
| 1777589462 | 24.44° C | 79% | 1002.5 hPa | 0 mm | - | 199 W/m² | - |
| 1777589404 | 24.44° C | 78% | 1002.5 hPa | 0 mm | - | 208 W/m² | - |
| 1777589344 | 24.44° C | 79% | 1002.4 hPa | 0 mm | - | 211 W/m² | - |
| 1777589283 | 24.44° C | 79% | 1002.5 hPa | 0 mm | - | 211 W/m² | - |
| 1777589225 | 24.44° C | 78% | 1002.3 hPa | 0 mm | - | 208 W/m² | - |
| 1777589164 | 24.44° C | 79% | 1002.4 hPa | 0 mm | - | 181 W/m² | - |
| 1777589103 | 24.44° C | 78% | 1002.3 hPa | 0 mm | - | 181 W/m² | - |
| 1777589044 | 24.44° C | 78% | 1002.3 hPa | 0 mm | - | 181 W/m² | - |
| 1777588983 | 24.44° C | 78% | 1002.3 hPa | 0 mm | - | 181 W/m² | - |
| 1777588924 | 24.44° C | 78% | 1002.3 hPa | 0 mm | - | 181 W/m² | - |
| 1777588862 | 24.44° C | 78% | 1002.3 hPa | 0 mm | - | 181 W/m² | - |
| 1777588804 | 25° C | 77% | 1002.2 hPa | 0 mm | - | 165 W/m² | - |
| 1777588744 | 25° C | 77% | 1002.3 hPa | 0 mm | - | 165 W/m² | - |
| 1777588682 | 25° C | 77% | 1002.3 hPa | 0 mm | - | 155 W/m² | - |
| 1777588623 | 25° C | 78% | 1002.3 hPa | 0 mm | - | 132 W/m² | - |
| 1777588563 | 25° C | 78% | 1002.3 hPa | 0 mm | - | 132 W/m² | - |
| 1777588504 | 25° C | 77% | 1002.3 hPa | 0 mm | - | 132 W/m² | - |
| 1777588443 | 25° C | 77% | 1002.3 hPa | 0 mm | - | 132 W/m² | - |
| 1777588382 | 25° C | 77% | 1002.3 hPa | 0 mm | - | 137 W/m² | - |
| 1777588323 | 25° C | 77% | 1002.3 hPa | 0 mm | - | 153 W/m² | - |
* Rain latest hour (hover to see other rain measurements)
** Current wind speed in m/s (hover to see current wind gust speed)